Simultaneous Nadir Overpasses (SNOs) Predictions

Prediction of SNOs between NOAA-15 and METOP-C Satellite Orbit:

Table of predicted SNOs for the next 14.0 days since TLE Epoch: 6/7/2019
Index Date (NOAA-15) Time (NOAA-15) Lat,Lon (NOAA-15) SZA (NOAA-15 ) Date (METOP-C) Time (METOP-C) Lat,Lon (METOP-C) SZA (METOP-C ) Distance(km) Time Diff (sec)
1 06/17/2019 01:33:36 -80.81, 9.73 121.01 06/17/2019 01:32:25 -80.81, 9.90 121.02 2.97 71
2 06/17/2019 02:24:09 80.82, 177.00 58.99 06/17/2019 02:23:05 80.81, 177.12 58.97 2.56 64
3 06/17/2019 03:14:39 -80.82, -15.62 121.02 06/17/2019 03:13:47 -80.80, -15.58 121.04 1.82 52
4 06/17/2019 04:05:11 80.81, 152.00 59.00 06/17/2019 04:04:26 80.82, 151.99 58.99 1.41 45
5 06/17/2019 04:55:41 -80.81, -40.62 121.00 06/17/2019 04:55:08 -80.82, -40.70 121.02 1.85 33
6 06/17/2019 05:46:14 80.81, 126.65 58.99 06/17/2019 05:45:48 80.81, 126.52 58.97 2.41 26
7 06/17/2019 06:36:44 -80.81, -65.98 121.01 06/17/2019 06:36:29 -80.83, -65.83 120.99 3.34 15
8 06/17/2019 07:27:17 80.82, 101.30 58.99 06/17/2019 07:27:09 80.82, 101.39 59.00 1.80 8
9 06/17/2019 08:17:47 -80.82, -91.34 121.02 06/17/2019 08:17:51 -80.82, -91.31 121.01 0.78 4
10 06/17/2019 09:08:20 80.82, 75.95 58.98 06/17/2019 09:08:31 80.81, 75.91 58.98 0.87 11
11 06/17/2019 09:58:50 -80.82,-116.70 121.03 06/17/2019 09:59:13 -80.81,-116.78 121.03 1.81 23
12 06/17/2019 10:49:23 80.83, 50.59 58.97 06/17/2019 10:49:52 80.83, 50.79 59.00 3.44 29
13 06/17/2019 11:39:53 -80.83,-142.05 121.03 06/17/2019 11:40:34 -80.83,-141.91 121.00 2.51 41
14 06/17/2019 12:30:26 80.83, 25.24 58.97 06/17/2019 12:31:14 80.82, 25.31 58.98 1.73 48
15 06/17/2019 13:20:56 -80.83,-167.41 121.04 06/17/2019 13:21:56 -80.82,-167.39 121.03 1.57 60
16 06/17/2019 14:11:28 80.82, 0.24 58.98 06/17/2019 14:12:35 80.83, 0.18 59.01 1.92 67




NCC Satellite Simultaneous Nadir Overpasses (SNOs) Prediction Service
